Change the Weather History Date:

Saturday, January 25, 2014

  Actual Average Record
Temperature  
Mean Temperature 45 °F -  
Max Temperature 48 °F - - ()
Min Temperature 42 °F - - ()
Degree Days  
Heating Degree Days 20    
Moisture  
Dew Point 39 °F    
Average Humidity 83    
Maximum Humidity 100    
Minimum Humidity 62    
Precipitation  
Precipitation 0.00 in - - ()
Sea Level Pressure  
Sea Level Pressure 29.84 in    
Wind  
Wind Speed 27 mph ()    
Max Wind Speed 48 mph    
Max Gust Speed 58 mph    
Visibility 6.2 miles    
Events Rain    
T = Trace of Precipitation, MM = Missing Value Source: Averaged Metar Reports

Daily Weather History Graph

Daily Weather History Graph

Search for Another Location

Airport or City:

Trip Planner

Search our weather history database for the weather conditions in past years. The results will help you decide how hot, cold, wet, or windy it might be!

Date:

Astronomy

Jan. 25, 2014 Rise Set
Actual Time 8:38 AM CET 5:20 PM CET
Civil Twilight 8:00 AM CET 5:58 PM CET
Nautical Twilight 7:18 AM CET 6:39 PM CET
Astronomical Twilight 6:38 AM CET 7:20 PM CET
Moon 2:48 AM CET (1/25) 12:12 PM CET (1/25)
Length of Visible Light 9h 58m
Length of Day
8h 41m
Last Quarter, 37% of the Moon is Illuminated
Jan 25
Last Quarter
Jan 30
New
Feb 6
First Quarter
Feb 15
Full
Feb 22
Last Quarter

Hourly Weather History & Observations

Time (CET) Temp. Windchill Dew Point Humidity Pressure Visibility Wind Dir Wind Speed Gust Speed Precip Events Conditions
12:00 AM 44 °F - 36 °F 64% 29.99 in 11 mi SSE 22.4 mph - -   Mostly Cloudy
12:25 AM 42.8 °F 32.5 °F 35.6 °F 76% 29.98 in 6.2 mi SSE 28.8 mph - N/A   Unknown
12:55 AM 42.8 °F 32.3 °F 33.8 °F 70% 29.98 in 6.2 mi SSE 29.9 mph - N/A   Unknown
1:00 AM 43 °F - 34 °F 62% 29.99 in 12 mi SSE 24.6 mph - -   Partly Cloudy
1:25 AM 42.8 °F 32.3 °F 33.8 °F 70% 29.98 in 6.2 mi SSE 29.9 mph - N/A   Unknown
1:55 AM 42.8 °F 32.5 °F 33.8 °F 70% 29.98 in 6.2 mi SSE 28.8 mph - N/A   Unknown
2:00 AM 44 °F - 35 °F 62% 30.00 in 12 mi SSE 24.6 mph - -   Scattered Clouds
2:25 AM 42.8 °F 32.9 °F 35.6 °F 76% 29.98 in 6.2 mi SSE 26.5 mph - N/A   Unknown
2:55 AM 42.8 °F 32.9 °F 35.6 °F 76% 29.98 in 6.2 mi SSE 26.5 mph - N/A   Unknown
3:00 AM 43 °F - 36 °F 68% 30.00 in 11 mi SSE 22.4 mph - -   Scattered Clouds
3:25 AM 42.8 °F 32.9 °F 37.4 °F 81% 29.98 in 6.2 mi SSE 26.5 mph - N/A   Partly Cloudy
3:55 AM 42.8 °F 32.9 °F 37.4 °F 81% 29.98 in 6.2 mi SSE 26.5 mph - N/A   Partly Cloudy
4:00 AM 43 °F - 37 °F 74% 29.98 in 9 mi SSE 22.4 mph - -   Scattered Clouds
4:25 AM 42.8 °F 32.7 °F 37.4 °F 81% 29.98 in 6.2 mi South 27.6 mph - N/A Rain Light Rain
4:55 AM 42.8 °F 32.5 °F 39.2 °F 87% 29.95 in 6.2 mi South 28.8 mph - N/A   Mostly Cloudy
5:00 AM 43 °F - 38 °F 76% 29.98 in 9 mi South 24.6 mph - - Rain Rain
5:25 AM 42.8 °F 33.1 °F 37.4 °F 81% 29.98 in 6.2 mi South 25.3 mph - N/A   Overcast
5:55 AM 42.8 °F 33.1 °F 37.4 °F 81% 29.95 in 6.2 mi South 25.3 mph - N/A Rain Light Rain
6:00 AM 43 °F - 36 °F 69% 29.97 in 11 mi South 22.4 mph - - Rain Light Drizzle
6:25 AM 42.8 °F 32.9 °F 37.4 °F 81% 29.95 in 6.2 mi South 26.5 mph - N/A   Mostly Cloudy
6:55 AM 42.8 °F 33.1 °F 37.4 °F 81% 29.95 in 6.2 mi South 25.3 mph - N/A   Mostly Cloudy
7:00 AM 43 °F - 38 °F 74% 29.97 in 11 mi South 22.4 mph - - Rain Drizzle
7:25 AM 42.8 °F 32.9 °F 37.4 °F 81% 29.95 in 6.2 mi South 26.5 mph - N/A   Mostly Cloudy
7:55 AM 42.8 °F 33.1 °F 37.4 °F 81% 29.95 in 6.2 mi South 25.3 mph - N/A   Mostly Cloudy
8:00 AM 43 °F - 39 °F 79% 29.97 in 11 mi South 20.1 mph - -   Scattered Clouds
8:25 AM 42.8 °F 32.7 °F 39.2 °F 87% 29.95 in 6.2 mi South 27.6 mph - N/A   Mostly Cloudy
8:55 AM 44.6 °F 34.4 °F 37.4 °F 76% 29.95 in 6.2 mi South 32.2 mph - N/A   Overcast
9:00 AM 43 °F - 39 °F 81% 29.95 in 13 mi South 26.8 mph - -   Overcast
9:25 AM 42.8 °F 31.6 °F 39.2 °F 87% 29.92 in 6.2 mi South 34.5 mph - N/A   Mostly Cloudy
9:55 AM 42.8 °F 31.4 °F 39.2 °F 87% 29.92 in 6.2 mi South 35.7 mph - N/A   Overcast
10:00 AM 43 °F - 39 °F 81% 29.93 in 12 mi South 31.3 mph - -   Overcast
10:25 AM 42.8 °F 31.6 °F 41.0 °F 93% 29.92 in 6.2 mi South 34.5 mph - N/A   Mostly Cloudy
10:55 AM 42.8 °F 31.4 °F 39.2 °F 87% 29.92 in 6.2 mi South 35.7 mph - N/A   Overcast
11:00 AM 43 °F - 40 °F 85% 29.94 in 8 mi South 29.1 mph - -   Overcast
11:25 AM 42.8 °F 31.6 °F 41.0 °F 93% 29.92 in 2.8 mi Variable 34.5 mph - N/A   Overcast
11:55 AM 42.8 °F 32.1 °F 41.0 °F 93% 29.92 in - South 31.1 mph - N/A   Drizzle
12:00 PM 43 °F - 41 °F 90% 29.93 in 3 mi South 26.8 mph - - Rain Drizzle
12:25 PM 42.8 °F 32.3 °F 41.0 °F 93% 29.92 in - Variable 29.9 mph - N/A Rain Rain
12:55 PM 42.8 °F 32.3 °F 41.0 °F 93% 29.89 in 3.1 mi SSW 29.9 mph - N/A Rain Drizzle
1:00 PM 43 °F - 42 °F 93% 29.90 in 4 mi SSW 24.6 mph - - Rain Drizzle
1:25 PM 42.8 °F 32.5 °F 42.8 °F 100% 29.86 in 3.7 mi Variable 28.8 mph - N/A   Overcast
1:55 PM 42.8 °F 31.9 °F 42.8 °F 100% 29.83 in 3.7 mi South 32.2 mph - N/A   Overcast
2:00 PM 44 °F - 42 °F 92% 29.83 in 4 mi South 26.8 mph - - Rain Drizzle
2:25 PM 44.6 °F 34.4 °F 42.8 °F 93% 29.80 in 4.3 mi Variable 32.2 mph - N/A   Overcast
2:55 PM 44.6 °F 34.4 °F 42.8 °F 93% 29.80 in 3.1 mi South 32.2 mph - N/A   Overcast
3:00 PM 44 °F - 42 °F 91% 29.81 in 4 mi South 29.1 mph - -   Mist
3:25 PM 44.6 °F 34.1 °F 42.8 °F 93% 29.77 in 4.3 mi South 34.5 mph - N/A   Overcast
3:55 PM 44.6 °F 34.1 °F 42.8 °F 93% 29.77 in 4.3 mi South 34.5 mph - N/A   Overcast
4:00 PM 44 °F - 42 °F 92% 29.78 in 4 mi South 29.1 mph - -   Mist
4:25 PM 44.6 °F 34.1 °F 42.8 °F 93% 29.74 in 4.3 mi South 34.5 mph - N/A   Overcast
4:55 PM 44.6 °F 33.6 °F 42.8 °F 93% 29.68 in 4.3 mi South 38.0 mph - N/A Rain Light Rain
5:00 PM 44 °F - 43 °F 95% 29.72 in 4 mi South 31.3 mph - - Rain Light Drizzle
5:25 PM 44.6 °F 33.6 °F 42.8 °F 93% 29.68 in 3.1 mi South 38.0 mph - N/A   Overcast
5:55 PM 44.6 °F 33.9 °F 44.6 °F 100% 29.65 in 1.9 mi South 35.7 mph - N/A   Overcast
6:00 PM 45 °F - 44 °F 93% 29.67 in 2 mi South 31.3 mph - - Rain Drizzle
6:25 PM 46.4 °F 36.9 °F 44.6 °F 93% 29.65 in 3.1 mi South 32.2 mph - N/A Rain Light Rain
6:55 PM 46.4 °F 36.3 °F 44.6 °F 93% 29.59 in 3.7 mi South 36.8 mph - N/A Rain Light Rain
7:00 PM 47 °F - 45 °F 91% 29.60 in 4 mi South 31.3 mph - - Rain Light Rain Showers
7:25 PM 48.2 °F - 46.4 °F 93% 29.56 in 3.7 mi South 33.4 mph - N/A Rain Rain
7:55 PM 42.8 °F 31.0 °F 41.0 °F 93% 29.56 in 2.5 mi WNW 39.1 mph 51.8 mph N/A Rain Light Rain Showers
8:00 PM 43 °F - 39 °F 81% 29.60 in 3 mi NW 33.6 mph - - Rain Light Rain Showers
8:25 PM 46.4 °F 37.4 °F 39.2 °F 76% 29.59 in 6.2 mi WNW 28.8 mph 42.6 mph N/A Rain Light Rain
8:55 PM 44.6 °F 32.4 °F 37.4 °F 76% 29.59 in 6.2 mi West 48.3 mph - N/A Rain Light Rain
9:00 PM 46 °F - 38 °F 63% 29.63 in 9 mi West 35.8 mph - - Rain Light Drizzle
9:25 PM 46.4 °F 35.7 °F 37.4 °F 71% 29.62 in 6.2 mi Variable 41.4 mph 54.1 mph N/A   Mostly Cloudy
9:55 PM 44.6 °F 32.9 °F 37.4 °F 76% 29.65 in 6.2 mi Variable 43.7 mph 57.5 mph N/A   Mostly Cloudy
10:00 PM 45 °F - 38 °F 68% 29.67 in 9 mi West 35.8 mph - - Rain Drizzle
10:25 PM 44.6 °F 33.1 °F 37.4 °F 76% 29.65 in 6.2 mi West 42.6 mph 54.1 mph N/A   Mostly Cloudy
10:55 PM 44.6 °F 33.8 °F 37.4 °F 76% 29.68 in 6.2 mi West 36.8 mph 48.3 mph N/A   Mostly Cloudy
11:00 PM 45 °F - 37 °F 65% 29.70 in 9 mi West 33.6 mph - -   Partly Cloudy
11:25 PM 44.6 °F 33.9 °F 37.4 °F 76% 29.71 in 6.2 mi West 35.7 mph 48.3 mph N/A   Overcast
11:55 PM 46.4 °F 37.2 °F 37.4 °F 71% 29.71 in 6.2 mi West 29.9 mph 41.4 mph N/A   Overcast